STARLINK-5684, 55453

Orbit data source: Space-Track

STARLINK-5684, 55453 is a payload satellite owned by SpaceX/Seattle (US) in LEO that was launched on Thu, 02 Feb 2023 UTC via an FALCON 9 launch vehicle from the Air Force Eastern Test Range (AFETR). Payload-class satellites include a variety of spacecraft equipped with specific instruments for various scientific and technological missions. These include communications satellites like Starlink; space stations such as the ISS; scientific satellites like the Hubble; Earth observation satellites from companies like Planet Labs, Umbra, and HawkEye 360; GPS; miniature CubeSats for education and research; and military/defense satellites.

Loading next visibility...
Identifier
55453, 2023-015E
Orbit
LEO
Country
Flag of USUS
Related business
Manufacturer
SpaceX/Seattle
Mission
Operational Commercial Communications
Bus & Motor
STARLINK, Unknown motor
Mass
305 kg wet, ~290 kg dry
Launch date (UTC)
2023-02-02 (3 years ago)
Launch vehicle
FALCON 9
Launch site
Air Force Eastern Test Range (AFETR)
Object type
Payload
Rocket body
Debris
Shape & HBR
Box + 1 Pan, 10.1 m
Radar Cross Section
13.562 m², Large (>1 m²)

Expand to show TLE details & history
Last TLE update: 12 hours ago

TLE from 12 hours ago
0 STARLINK-5684
1 55453U 23015E   25288.65517225  .00000490  00000-0  51319-4 0  9997
2 55453  43.0051  34.3603 0001241 267.7722  92.2978 15.02534784148938
Epoch: 2025-10-15T15:43Z
TLE epoch observation values (Epoch: 2025-10-15T15:43:26.882Z)
Latitude
-0.00003°
Longitude
134.07212°
Altitude
558.896 km
Speed
7.584 km/s
True Right ascension
02h 17m 26s
True Declination
0° 00' 00"
Sunlit
Object was in full shadow at epoch
Visualization orbit readout
Latitude
Unknown
Longitude
Unknown
Altitude
Unknown
Speed
Unknown
Apparent Right ascension
Unknown
Apparent Declination
Unknown
Sunlit
N/A
Visualization observer readout
Local Sidereal Time
22:02:33
Azimuth
Unknown
Elevation
Unknown
Doppler factor
Unknown
Orbital elements
Apogee altitude
561.868 km
Perigee altitude
560.145 km
Semi-major axis
6,939.143 km
Eccentricity
0.00012
Inclination
43.0051°
RAAN
34.3603°
Arg. of periapsis
267.7722°
True anomaly
92.31201°
Mean anomaly
92.2978°
Eccentric anomaly
92.3049°
Mean motion
3.75478 °/min
Orbital period
95.88 mins
BSTAR
0.000051319
Loading maneuver chart data...
Computing Atmospheric mass density...
Loading historical data...
Loading historical data...
Loading historical data...
Loading historical data...
Loading historical data...
Loading historical data...
Loading historical data...

Documentation

Showing up to 5 results
|